Manchester, NH

3:23 AM EST on February 12, 2016 (GMT -0500)
Manchester

Weather History for KMHT - October, 2013

Change the Weather History Date:

Sunday, October 20, 2013

  Actual Average Record
Temperature  
Mean Temperature 54 °F 49 °F  
Max Temperature 61 °F 60 °F 78 °F (1950)
Min Temperature 46 °F 39 °F 23 °F (1959)
Degree Days  
Heating Degree Days 11    
Cooling Degree Days 0    
Growing Degree Days 4 (Base 50)    
Moisture  
Dew Point 37 °F    
Average Humidity 57    
Maximum Humidity 93    
Minimum Humidity 36    
Precipitation  
Precipitation 0.00 in 0.14 in 1.60 in (1966)
Month to date precipitation 2.73  
Year to date precipitation 35.80  
Snow  
Snow 0.00 in - - ()
Month to date snowfall  
Since 1 July snowfall  
Snow Depth -    
Sea Level Pressure  
Sea Level Pressure 29.86 in    
Wind  
Wind Speed 7 mph (WSW)    
Max Wind Speed 20 mph    
Max Gust Speed 25 mph    
Visibility 10 miles    
Events      
T = Trace of Precipitation, MM = Missing Value Source: NWS Daily Summary

Daily Weather History Graph

Daily Weather History Graph

Search for Another Location

Airport or City:

Trip Planner

Search our weather history database for the weather conditions in past years. The results will help you decide how hot, cold, wet, or windy it might be!

Date:

Astronomy

Oct. 20, 2013 Rise Set
Actual Time 7:05 AM EDT 5:54 PM EDT
Civil Twilight 6:36 AM EDT 6:23 PM EDT
Nautical Twilight 6:03 AM EDT 6:56 PM EDT
Astronomical Twilight 5:30 AM EDT 7:29 PM EDT
Moon 6:58 PM EDT (10/20) 8:42 AM EDT (10/20)
Length of Visible Light 11h 46m
Length of Day
10h 49m
Full, 97% of the Moon is Illuminated
Oct 20
Full
Oct 26
Last Quarter
Nov 3
New
Nov 10
First Quarter
Nov 17
Full

Hourly Weather History & Observations

Time (EDT) Temp. Dew Point Humidity Pressure Visibility Wind Dir Wind Speed Gust Speed Precip Events Conditions
12:53 AM 55.9 °F 44.1 °F 64% 29.75 in 10.0 mi South 8.1 mph - N/A   Overcast
1:53 AM 55.0 °F 45.0 °F 69% 29.73 in 10.0 mi SSE 6.9 mph - 0.00 in   Overcast
2:53 AM 53.1 °F 46.0 °F 77% 29.72 in 10.0 mi SSW 3.5 mph - N/A   Mostly Cloudy
3:53 AM 51.1 °F 46.0 °F 83% 29.71 in 10.0 mi South 3.5 mph - N/A   Clear
4:53 AM 50.0 °F 46.0 °F 86% 29.72 in 10.0 mi SSW 5.8 mph - N/A   Clear
5:53 AM 48.0 °F 46.0 °F 93% 29.74 in 9.0 mi Calm Calm - N/A   Clear
6:53 AM 51.1 °F 39.0 °F 63% 29.77 in 10.0 mi WSW 6.9 mph - N/A   Clear
7:53 AM 50.0 °F 39.0 °F 66% 29.79 in 10.0 mi SW 4.6 mph - N/A   Clear
8:53 AM 52.0 °F 37.9 °F 59% 29.82 in 10.0 mi WSW 5.8 mph - N/A   Clear
9:53 AM 54.0 °F 37.0 °F 53% 29.84 in 10.0 mi WNW 9.2 mph 17.3 mph N/A   Clear
10:53 AM 57.0 °F 35.1 °F 44% 29.84 in 10.0 mi WNW 9.2 mph 17.3 mph N/A   Partly Cloudy
11:53 AM 57.9 °F 33.1 °F 39% 29.85 in 10.0 mi WNW 13.8 mph 20.7 mph N/A   Clear
12:53 PM 59.0 °F 33.1 °F 38% 29.85 in 10.0 mi West 13.8 mph 19.6 mph N/A   Scattered Clouds
1:53 PM 59.0 °F 32.0 °F 36% 29.86 in 10.0 mi WNW 19.6 mph 25.3 mph N/A   Clear
2:53 PM 60.1 °F 33.1 °F 36% 29.88 in 10.0 mi West 12.7 mph 24.2 mph N/A   Mostly Cloudy
3:53 PM 59.0 °F 33.1 °F 38% 29.90 in 10.0 mi West 13.8 mph 20.7 mph N/A   Scattered Clouds
4:53 PM 57.9 °F 32.0 °F 37% 29.92 in 10.0 mi West 8.1 mph - N/A   Partly Cloudy
5:53 PM 55.9 °F 32.0 °F 40% 29.94 in 10.0 mi WNW 9.2 mph - N/A   Clear
6:53 PM 54.0 °F 33.1 °F 45% 29.96 in 10.0 mi Calm Calm - N/A   Clear
7:53 PM 51.1 °F 34.0 °F 52% 29.98 in 10.0 mi SE 3.5 mph - N/A   Clear
8:53 PM 48.0 °F 35.1 °F 61% 30.00 in 10.0 mi SSW 4.6 mph - N/A   Clear
9:53 PM 48.0 °F 34.0 °F 58% 30.02 in 10.0 mi SSW 4.6 mph - N/A   Clear
10:53 PM 48.0 °F 34.0 °F 58% 30.04 in 10.0 mi Calm Calm - N/A   Clear
11:53 PM 46.9 °F 34.0 °F 61% 30.04 in 10.0 mi Calm Calm - N/A   Clear